Weather History for KBKL - December, 2011

Change the Weather History Date:

Tuesday, December 6, 2011

  Actual Average Record
Temperature  
Mean Temperature 40 °F -  
Max Temperature 41 °F 42 °F 70 °F (1998)
Min Temperature 39 °F 32 °F 12 °F (2005)
Degree Days  
Heating Degree Days 25    
Moisture  
Dew Point 37 °F    
Average Humidity 90    
Maximum Humidity 93    
Minimum Humidity 87    
Precipitation  
Precipitation 0.06 in - - ()
Sea Level Pressure  
Sea Level Pressure 30.09 in    
Wind  
Wind Speed 15 mph (NNE)    
Max Wind Speed 20 mph    
Max Gust Speed 28 mph    
Visibility 6 miles    
Events Rain    
Averages and records for this station are not official NWS values.
T = Trace of Precipitation, MM = Missing Value Source: NWS Daily Summary

Daily Weather History Graph

Daily Weather History Graph

Search for Another Location

Airport or City:

Trip Planner

Search our weather history database for the weather conditions in past years. The results will help you decide how hot, cold, wet, or windy it might be!

Date:

Astronomy

Dec. 06, 2011 Rise Set
Actual Time 7:38 AM EST 4:56 PM EST
Civil Twilight 7:07 AM EST 5:27 PM EST
Nautical Twilight 6:32 AM EST 6:02 PM EST
Astronomical Twilight 5:59 AM EST 6:36 PM EST
Moon 2:24 PM EST (12/6) 3:54 AM EST (12/6)
Length of Visible Light 10h 20m
Length of Day
9h 18m
Waxing Gibbous, 86% of the Moon is Illuminated
Dec 6
Waxing Gibbous
Dec 10
Full
Dec 17
Last Quarter
Dec 24
New
Jan 1
First Quarter

Hourly Weather History & Observations

Time (EST) Temp. Windchill Dew Point Humidity Pressure Visibility Wind Dir Wind Speed Gust Speed Precip Events Conditions
12:53 AM 39.9 °F 30.5 °F 37.0 °F 89% 30.11 in 10.0 mi NNE 19.6 mph 27.6 mph 0.02 in   Overcast
1:48 AM 39.2 °F 29.8 °F 37.4 °F 93% 30.10 in 8.0 mi NNE 18.4 mph - 0.01 in   Overcast
1:53 AM 39.9 °F 31.1 °F 37.0 °F 89% 30.12 in 6.0 mi NNE 17.3 mph - 0.01 in   Overcast
2:25 AM 39.2 °F 30.2 °F 37.4 °F 93% 30.11 in 6.0 mi NNE 17.3 mph - 0.00 in   Overcast
2:44 AM 41.0 °F 33.5 °F 37.4 °F 87% 30.11 in 6.0 mi NNE 13.8 mph 23.0 mph 0.00 in   Overcast
2:53 AM 41.0 °F 32.8 °F 37.9 °F 89% 30.11 in 7.0 mi NE 16.1 mph 23.0 mph 0.00 in   Overcast
3:06 AM 41.0 °F 32.8 °F 37.4 °F 87% 30.11 in 10.0 mi NE 16.1 mph 24.2 mph N/A   Overcast
3:53 AM 41.0 °F 32.8 °F 37.9 °F 89% 30.13 in 10.0 mi NNE 16.1 mph - N/A   Overcast
4:53 AM 41.0 °F 32.5 °F 37.9 °F 89% 30.12 in 10.0 mi NNE 17.3 mph 23.0 mph N/A   Overcast
5:53 AM 39.9 °F 32.1 °F 37.9 °F 93% 30.14 in 4.0 mi North 13.8 mph - N/A   Overcast
6:53 AM 39.9 °F 32.9 °F 37.9 °F 93% 30.13 in 5.0 mi NNE 11.5 mph - 0.00 in   Overcast
7:12 AM 41.0 °F 33.9 °F 37.4 °F 87% 30.11 in 8.0 mi NNE 12.7 mph - N/A   Overcast
7:38 AM 41.0 °F 33.5 °F 37.4 °F 87% 30.12 in 4.0 mi NNE 13.8 mph - N/A   Overcast
7:53 AM 39.9 °F 31.8 °F 37.9 °F 93% 30.13 in 2.5 mi North 15.0 mph - 0.00 in Rain Light Rain
8:53 AM 39.9 °F 30.8 °F 37.9 °F 93% 30.15 in 2.5 mi North 18.4 mph - 0.00 in   Overcast
9:09 AM 39.2 °F 31.2 °F 37.4 °F 93% 30.13 in 2.5 mi NNE 13.8 mph - 0.00 in   Overcast
9:14 AM 39.2 °F 30.8 °F 37.4 °F 93% 30.14 in 1.8 mi North 15.0 mph - 0.00 in Rain Light Rain
9:24 AM 39.2 °F 31.2 °F 37.4 °F 93% 30.14 in 2.5 mi North 13.8 mph - 0.00 in Rain Light Rain
9:36 AM 39.2 °F 30.8 °F 37.4 °F 93% 30.14 in 3.0 mi North 15.0 mph - 0.00 in   Overcast
9:53 AM 39.9 °F 31.8 °F 37.9 °F 93% 30.15 in 3.0 mi North 15.0 mph - 0.00 in   Overcast
10:53 AM 41.0 °F 34.7 °F 37.9 °F 89% 30.15 in 3.0 mi NNE 10.4 mph - N/A   Overcast
11:33 AM 41.0 °F 33.1 °F 39.2 °F 93% 30.11 in 2.0 mi North 15.0 mph - 0.00 in Rain Light Rain
11:53 AM 39.9 °F 31.1 °F 37.9 °F 93% 30.12 in 2.0 mi North 17.3 mph - 0.01 in Rain Light Rain
12:28 PM 41.0 °F 33.5 °F 37.4 °F 87% 30.10 in 3.0 mi North 13.8 mph - 0.00 in Rain Light Rain
12:53 PM 39.9 °F 32.1 °F 37.9 °F 93% 30.10 in 3.0 mi NNE 13.8 mph - 0.00 in   Overcast
1:19 PM 41.0 °F 34.3 °F 37.4 °F 87% 30.08 in 7.0 mi NNE 11.5 mph - N/A   Overcast
1:43 PM 39.2 °F 31.2 °F 37.4 °F 93% 30.08 in 2.5 mi NNE 13.8 mph - N/A   Overcast
1:51 PM 39.2 °F 31.6 °F 37.4 °F 93% 30.08 in 4.0 mi NNE 12.7 mph - N/A   Overcast
1:52 PM 39.9 °F 32.5 °F 37.9 °F 93% 30.09 in 4.0 mi NNE 12.7 mph - N/A   Overcast
2:00 PM 39.2 °F 31.6 °F 37.4 °F 93% 30.07 in 2.5 mi North 12.7 mph - 0.00 in Rain Light Rain
2:30 PM 39.2 °F 30.5 °F 37.4 °F 93% 30.06 in 4.0 mi NNE 16.1 mph - 0.00 in   Overcast
2:53 PM 41.0 °F 33.5 °F 37.9 °F 89% 30.07 in 7.0 mi NNE 13.8 mph - 0.00 in   Overcast
3:00 PM 41.0 °F 34.3 °F 37.4 °F 87% 30.05 in 10.0 mi NNE 11.5 mph - N/A   Overcast
3:08 PM 41.0 °F 35.2 °F 37.4 °F 87% 30.06 in 9.0 mi NNE 9.2 mph - N/A   Overcast
3:53 PM 41.0 °F 34.7 °F 37.9 °F 89% 30.08 in 4.0 mi NNE 10.4 mph - 0.00 in Rain Light Rain
4:07 PM 41.0 °F 35.2 °F 37.4 °F 87% 30.06 in 6.0 mi NNE 9.2 mph - 0.00 in   Overcast
4:15 PM 41.0 °F 35.8 °F 37.4 °F 87% 30.06 in 4.0 mi NNE 8.1 mph - 0.00 in   Overcast
4:21 PM 39.2 °F 33.6 °F 37.4 °F 93% 30.06 in 2.5 mi NNE 8.1 mph - 0.01 in Rain Light Rain
4:41 PM 39.2 °F 33.6 °F 37.4 °F 93% 30.06 in 2.0 mi NNE 8.1 mph - 0.01 in Rain Light Rain
4:50 PM 41.0 °F 35.8 °F 37.4 °F 87% 30.06 in 3.0 mi NNE 8.1 mph - 0.01 in Rain Light Rain
4:53 PM 41.0 °F 34.7 °F 37.9 °F 89% 30.07 in 4.0 mi NNE 10.4 mph - 0.01 in   Overcast
5:24 PM 39.2 °F 32.5 °F 37.4 °F 93% 30.07 in 3.0 mi North 10.4 mph - 0.01 in Rain Light Rain
5:45 PM 41.0 °F 34.7 °F 37.4 °F 87% 30.07 in 9.0 mi North 10.4 mph - 0.01 in   Overcast
5:53 PM 41.0 °F 34.7 °F 37.9 °F 89% 30.09 in 10.0 mi North 10.4 mph - 0.01 in   Overcast
6:04 PM 41.0 °F 33.5 °F 37.4 °F 87% 30.07 in 10.0 mi North 13.8 mph 19.6 mph N/A   Overcast
6:25 PM 39.2 °F 31.6 °F 37.4 °F 93% 30.07 in 9.0 mi North 12.7 mph - N/A   Overcast
6:32 PM 39.2 °F 31.6 °F 37.4 °F 93% 30.07 in 10.0 mi North 12.7 mph - N/A   Overcast
6:53 PM 41.0 °F 33.9 °F 37.9 °F 89% 30.08 in 10.0 mi North 12.7 mph - N/A   Overcast
7:09 PM 41.0 °F 34.3 °F 37.4 °F 87% 30.07 in 10.0 mi North 11.5 mph - N/A   Overcast
7:53 PM 39.9 °F 34.5 °F 37.0 °F 89% 30.09 in 10.0 mi North 8.1 mph - N/A   Overcast
8:53 PM 39.9 °F 33.9 °F 37.0 °F 89% 30.08 in 10.0 mi NNE 9.2 mph - N/A   Overcast
9:53 PM 39.9 °F 34.5 °F 37.0 °F 89% 30.04 in 10.0 mi NNE 8.1 mph - N/A   Overcast
10:44 PM 39.2 °F 33.6 °F 37.4 °F 93% 30.03 in 4.0 mi North 8.1 mph - N/A   Overcast
10:53 PM 39.9 °F 33.9 °F 37.0 °F 89% 30.04 in 4.0 mi North 9.2 mph - N/A   Overcast
11:46 PM 39.2 °F 31.2 °F 35.6 °F 87% 30.03 in 5.0 mi North 13.8 mph - N/A   Overcast
11:53 PM 39.0 °F 31.4 °F 36.0 °F 89% 30.06 in 4.0 mi North 12.7 mph - N/A   Overcast